<?xml version="1.0" encoding="UTF-8"?>
<gpx version="1.1" creator="https://www.youtrack.es" xsi:schemaLocation="http://www.topografix.com/GPX/1/1 http://www.topografix.com/GPX/1/1/gpx.xsd http://www.garmin.com/xmlschemas/GpxExtensions/v3 http://www.garmin.com/xmlschemas/GpxExtensionsv3.xsd http://www.garmin.com/xmlschemas/TrackPointExtension/v1 http://www.garmin.com/xmlschemas/TrackPointExtensionv1.xsd" xmlns:gpxtpx="http://www.garmin.com/xmlschemas/TrackPointExtension/v1" xmlns:gpxx="http://www.garmin.com/xmlschemas/GpxExtensions/v3" xmlns:xsi="http://www.w3.org/2001/XMLSchema-instance">
  <metadata>
    <link href="https://www.youtrack.es">
      <text>YouTrack.es</text>
    </link>
    <time>2026-05-08T00:52:08Z</time>
  </metadata>
  <trk>
    <src>https://www.youtrack.es</src>
    <link href="https://www.youtrack.es/ruta/36347-indicaciones-dia-1">
      <text>YouTrack.es</text>
    </link>
    <trkseg>
      <trkpt lat="40.41695" lon="-3.70352">
        <time>2022-09-16T05:48:26Z</time>
      </trkpt>
      <trkpt lat="40.41683" lon="-3.7035">
        <time>2022-09-16T05:48:26Z</time>
      </trkpt>
      <trkpt lat="40.41681" lon="-3.70394">
        <time>2022-09-16T05:48:26Z</time>
      </trkpt>
      <trkpt lat="40.41687" lon="-3.70394">
        <time>2022-09-16T05:48:26Z</time>
      </trkpt>
      <trkpt lat="40.41685" lon="-3.70429">
        <time>2022-09-16T05:48:26Z</time>
      </trkpt>
      <trkpt lat="40.41684" lon="-3.70438">
        <time>2022-09-16T05:48:26Z</time>
      </trkpt>
      <trkpt lat="40.41684" lon="-3.7045">
        <time>2022-09-16T05:48:26Z</time>
      </trkpt>
      <trkpt lat="40.41683" lon="-3.70462">
        <time>2022-09-16T05:48:26Z</time>
      </trkpt>
      <trkpt lat="40.41683" lon="-3.70463">
        <time>2022-09-16T05:48:26Z</time>
      </trkpt>
      <trkpt lat="40.41684" lon="-3.70476">
        <time>2022-09-16T05:48:26Z</time>
      </trkpt>
      <trkpt lat="40.41685" lon="-3.70482">
        <time>2022-09-16T05:48:26Z</time>
      </trkpt>
      <trkpt lat="40.4169" lon="-3.70508">
        <time>2022-09-16T05:48:26Z</time>
      </trkpt>
      <trkpt lat="40.41691" lon="-3.70516">
        <time>2022-09-16T05:48:26Z</time>
      </trkpt>
      <trkpt lat="40.41699" lon="-3.70549">
        <time>2022-09-16T05:48:26Z</time>
      </trkpt>
      <trkpt lat="40.417" lon="-3.70553">
        <time>2022-09-16T05:48:26Z</time>
      </trkpt>
      <trkpt lat="40.41709" lon="-3.7059">
        <time>2022-09-16T05:48:26Z</time>
      </trkpt>
      <trkpt lat="40.41697" lon="-3.70588">
        <time>2022-09-16T05:48:26Z</time>
      </trkpt>
      <trkpt lat="40.41696" lon="-3.70587">
        <time>2022-09-16T05:48:26Z</time>
      </trkpt>
      <trkpt lat="40.41678" lon="-3.70584">
        <time>2022-09-16T05:48:26Z</time>
      </trkpt>
      <trkpt lat="40.41661" lon="-3.70581">
        <time>2022-09-16T05:48:26Z</time>
      </trkpt>
      <trkpt lat="40.4166" lon="-3.7058">
        <time>2022-09-16T05:48:26Z</time>
      </trkpt>
      <trkpt lat="40.41645" lon="-3.70577">
        <time>2022-09-16T05:48:26Z</time>
      </trkpt>
      <trkpt lat="40.41638" lon="-3.70576">
        <time>2022-09-16T05:48:26Z</time>
      </trkpt>
      <trkpt lat="40.41636" lon="-3.7059">
        <time>2022-09-16T05:48:26Z</time>
      </trkpt>
      <trkpt lat="40.41635" lon="-3.70598">
        <time>2022-09-16T05:48:26Z</time>
      </trkpt>
      <trkpt lat="40.41628" lon="-3.70647">
        <time>2022-09-16T05:48:26Z</time>
      </trkpt>
      <trkpt lat="40.41627" lon="-3.70656">
        <time>2022-09-16T05:48:26Z</time>
      </trkpt>
      <trkpt lat="40.41627" lon="-3.70667">
        <time>2022-09-16T05:48:26Z</time>
      </trkpt>
      <trkpt lat="40.41625" lon="-3.70687">
        <time>2022-09-16T05:48:26Z</time>
      </trkpt>
      <trkpt lat="40.41623" lon="-3.70696">
        <time>2022-09-16T05:48:26Z</time>
      </trkpt>
      <trkpt lat="40.41608" lon="-3.70693">
        <time>2022-09-16T05:48:26Z</time>
      </trkpt>
      <trkpt lat="40.41597" lon="-3.7069">
        <time>2022-09-16T05:48:26Z</time>
      </trkpt>
      <trkpt lat="40.4159" lon="-3.70689">
        <time>2022-09-16T05:48:26Z</time>
      </trkpt>
      <trkpt lat="40.41589" lon="-3.70689">
        <time>2022-09-16T05:48:26Z</time>
      </trkpt>
      <trkpt lat="40.41586" lon="-3.70689">
        <time>2022-09-16T05:48:26Z</time>
      </trkpt>
      <trkpt lat="40.41583" lon="-3.70689">
        <time>2022-09-16T05:48:26Z</time>
      </trkpt>
      <trkpt lat="40.4158" lon="-3.70689">
        <time>2022-09-16T05:48:26Z</time>
      </trkpt>
      <trkpt lat="40.41569" lon="-3.70688">
        <time>2022-09-16T05:48:26Z</time>
      </trkpt>
      <trkpt lat="40.41568" lon="-3.70703">
        <time>2022-09-16T05:48:26Z</time>
      </trkpt>
      <trkpt lat="40.41565" lon="-3.70765">
        <time>2022-09-16T05:48:26Z</time>
      </trkpt>
      <trkpt lat="40.41564" lon="-3.70794">
        <time>2022-09-16T05:48:26Z</time>
      </trkpt>
      <trkpt lat="40.41568" lon="-3.70811">
        <time>2022-09-16T05:48:26Z</time>
      </trkpt>
      <trkpt lat="40.41568" lon="-3.70814">
        <time>2022-09-16T05:48:26Z</time>
      </trkpt>
      <trkpt lat="40.41569" lon="-3.70818">
        <time>2022-09-16T05:48:26Z</time>
      </trkpt>
      <trkpt lat="40.41571" lon="-3.70827">
        <time>2022-09-16T05:48:26Z</time>
      </trkpt>
      <trkpt lat="40.41578" lon="-3.7086">
        <time>2022-09-16T05:48:26Z</time>
      </trkpt>
      <trkpt lat="40.4158" lon="-3.70872">
        <time>2022-09-16T05:48:26Z</time>
      </trkpt>
      <trkpt lat="40.41581" lon="-3.70878">
        <time>2022-09-16T05:48:26Z</time>
      </trkpt>
      <trkpt lat="40.41577" lon="-3.70877">
        <time>2022-09-16T05:48:26Z</time>
      </trkpt>
      <trkpt lat="40.41559" lon="-3.70874">
        <time>2022-09-16T05:48:26Z</time>
      </trkpt>
      <trkpt lat="40.41554" lon="-3.70881">
        <time>2022-09-16T05:48:26Z</time>
      </trkpt>
      <trkpt lat="40.41549" lon="-3.70899">
        <time>2022-09-16T05:48:26Z</time>
      </trkpt>
      <trkpt lat="40.41549" lon="-3.70901">
        <time>2022-09-16T05:48:26Z</time>
      </trkpt>
      <trkpt lat="40.41541" lon="-3.70934">
        <time>2022-09-16T05:48:26Z</time>
      </trkpt>
      <trkpt lat="40.41545" lon="-3.70939">
        <time>2022-09-16T05:48:26Z</time>
      </trkpt>
      <trkpt lat="40.41559" lon="-3.70944">
        <time>2022-09-16T05:48:26Z</time>
      </trkpt>
      <trkpt lat="40.41561" lon="-3.70944">
        <time>2022-09-16T05:48:26Z</time>
      </trkpt>
      <trkpt lat="40.41563" lon="-3.70944">
        <time>2022-09-16T05:48:26Z</time>
      </trkpt>
      <trkpt lat="40.41571" lon="-3.70941">
        <time>2022-09-16T05:48:26Z</time>
      </trkpt>
      <trkpt lat="40.41573" lon="-3.70941">
        <time>2022-09-16T05:48:26Z</time>
      </trkpt>
      <trkpt lat="40.41575" lon="-3.70941">
        <time>2022-09-16T05:48:26Z</time>
      </trkpt>
      <trkpt lat="40.41585" lon="-3.70944">
        <time>2022-09-16T05:48:26Z</time>
      </trkpt>
      <trkpt lat="40.41583" lon="-3.70949">
        <time>2022-09-16T05:48:26Z</time>
      </trkpt>
      <trkpt lat="40.41582" lon="-3.70953">
        <time>2022-09-16T05:48:26Z</time>
      </trkpt>
      <trkpt lat="40.41579" lon="-3.70964">
        <time>2022-09-16T05:48:26Z</time>
      </trkpt>
      <trkpt lat="40.41568" lon="-3.71006">
        <time>2022-09-16T05:48:26Z</time>
      </trkpt>
      <trkpt lat="40.41565" lon="-3.7102">
        <time>2022-09-16T05:48:26Z</time>
      </trkpt>
      <trkpt lat="40.41563" lon="-3.71027">
        <time>2022-09-16T05:48:26Z</time>
      </trkpt>
      <trkpt lat="40.4156" lon="-3.71035">
        <time>2022-09-16T05:48:26Z</time>
      </trkpt>
      <trkpt lat="40.41558" lon="-3.71048">
        <time>2022-09-16T05:48:26Z</time>
      </trkpt>
      <trkpt lat="40.41557" lon="-3.71054">
        <time>2022-09-16T05:48:26Z</time>
      </trkpt>
      <trkpt lat="40.41548" lon="-3.71101">
        <time>2022-09-16T05:48:26Z</time>
      </trkpt>
      <trkpt lat="40.41549" lon="-3.71101">
        <time>2022-09-16T05:48:26Z</time>
      </trkpt>
      <trkpt lat="40.41549" lon="-3.71102">
        <time>2022-09-16T05:48:26Z</time>
      </trkpt>
      <trkpt lat="40.41549" lon="-3.71106">
        <time>2022-09-16T05:48:26Z</time>
      </trkpt>
      <trkpt lat="40.41549" lon="-3.71107">
        <time>2022-09-16T05:48:26Z</time>
      </trkpt>
      <trkpt lat="40.41546" lon="-3.71107">
        <time>2022-09-16T05:48:26Z</time>
      </trkpt>
      <trkpt lat="40.41542" lon="-3.71133">
        <time>2022-09-16T05:48:26Z</time>
      </trkpt>
      <trkpt lat="40.41541" lon="-3.71141">
        <time>2022-09-16T05:48:26Z</time>
      </trkpt>
      <trkpt lat="40.41539" lon="-3.71152">
        <time>2022-09-16T05:48:26Z</time>
      </trkpt>
      <trkpt lat="40.41537" lon="-3.71166">
        <time>2022-09-16T05:48:26Z</time>
      </trkpt>
      <trkpt lat="40.41535" lon="-3.71174">
        <time>2022-09-16T05:48:26Z</time>
      </trkpt>
      <trkpt lat="40.41533" lon="-3.71187">
        <time>2022-09-16T05:48:26Z</time>
      </trkpt>
      <trkpt lat="40.41529" lon="-3.71214">
        <time>2022-09-16T05:48:26Z</time>
      </trkpt>
      <trkpt lat="40.4153" lon="-3.71222">
        <time>2022-09-16T05:48:26Z</time>
      </trkpt>
      <trkpt lat="40.41527" lon="-3.71239">
        <time>2022-09-16T05:48:26Z</time>
      </trkpt>
      <trkpt lat="40.41526" lon="-3.71245">
        <time>2022-09-16T05:48:26Z</time>
      </trkpt>
      <trkpt lat="40.41525" lon="-3.71247">
        <time>2022-09-16T05:48:26Z</time>
      </trkpt>
      <trkpt lat="40.41527" lon="-3.71247">
        <time>2022-09-16T05:48:26Z</time>
      </trkpt>
      <trkpt lat="40.41525" lon="-3.71252">
        <time>2022-09-16T05:48:26Z</time>
      </trkpt>
      <trkpt lat="40.41524" lon="-3.71252">
        <time>2022-09-16T05:48:26Z</time>
      </trkpt>
      <trkpt lat="40.41523" lon="-3.71259">
        <time>2022-09-16T05:48:26Z</time>
      </trkpt>
      <trkpt lat="40.4152" lon="-3.71285">
        <time>2022-09-16T05:48:26Z</time>
      </trkpt>
      <trkpt lat="40.41518" lon="-3.71302">
        <time>2022-09-16T05:48:26Z</time>
      </trkpt>
      <trkpt lat="40.41517" lon="-3.71314">
        <time>2022-09-16T05:48:26Z</time>
      </trkpt>
      <trkpt lat="40.41514" lon="-3.71332">
        <time>2022-09-16T05:48:26Z</time>
      </trkpt>
      <trkpt lat="40.41514" lon="-3.71336">
        <time>2022-09-16T05:48:26Z</time>
      </trkpt>
      <trkpt lat="40.41513" lon="-3.71336">
        <time>2022-09-16T05:48:26Z</time>
      </trkpt>
      <trkpt lat="40.415" lon="-3.71336">
        <time>2022-09-16T05:48:26Z</time>
      </trkpt>
      <trkpt lat="40.41498" lon="-3.71336">
        <time>2022-09-16T05:48:26Z</time>
      </trkpt>
      <trkpt lat="40.41497" lon="-3.71338">
        <time>2022-09-16T05:48:26Z</time>
      </trkpt>
      <trkpt lat="40.41491" lon="-3.71339">
        <time>2022-09-16T05:48:26Z</time>
      </trkpt>
      <trkpt lat="40.41492" lon="-3.71343">
        <time>2022-09-16T05:48:26Z</time>
      </trkpt>
      <trkpt lat="40.41493" lon="-3.7136">
        <time>2022-09-16T05:48:26Z</time>
      </trkpt>
      <trkpt lat="40.41494" lon="-3.71364">
        <time>2022-09-16T05:48:26Z</time>
      </trkpt>
      <trkpt lat="40.41504" lon="-3.71362">
        <time>2022-09-16T05:48:26Z</time>
      </trkpt>
      <trkpt lat="40.41505" lon="-3.71366">
        <time>2022-09-16T05:48:26Z</time>
      </trkpt>
      <trkpt lat="40.41506" lon="-3.71366">
        <time>2022-09-16T05:48:26Z</time>
      </trkpt>
      <trkpt lat="40.41512" lon="-3.71366">
        <time>2022-09-16T05:48:26Z</time>
      </trkpt>
      <trkpt lat="40.41514" lon="-3.71366">
        <time>2022-09-16T05:48:26Z</time>
      </trkpt>
      <trkpt lat="40.41514" lon="-3.71371">
        <time>2022-09-16T05:48:26Z</time>
      </trkpt>
      <trkpt lat="40.41512" lon="-3.71386">
        <time>2022-09-16T05:48:26Z</time>
      </trkpt>
      <trkpt lat="40.41515" lon="-3.71433">
        <time>2022-09-16T05:48:26Z</time>
      </trkpt>
      <trkpt lat="40.41517" lon="-3.71461">
        <time>2022-09-16T05:48:26Z</time>
      </trkpt>
      <trkpt lat="40.41515" lon="-3.71433">
        <time>2022-09-16T05:48:26Z</time>
      </trkpt>
      <trkpt lat="40.41512" lon="-3.71386">
        <time>2022-09-16T05:48:26Z</time>
      </trkpt>
      <trkpt lat="40.41514" lon="-3.71371">
        <time>2022-09-16T05:48:26Z</time>
      </trkpt>
      <trkpt lat="40.41514" lon="-3.71364">
        <time>2022-09-16T05:48:26Z</time>
      </trkpt>
      <trkpt lat="40.41539" lon="-3.71361">
        <time>2022-09-16T05:48:26Z</time>
      </trkpt>
      <trkpt lat="40.41542" lon="-3.71361">
        <time>2022-09-16T05:48:26Z</time>
      </trkpt>
      <trkpt lat="40.41543" lon="-3.71361">
        <time>2022-09-16T05:48:26Z</time>
      </trkpt>
      <trkpt lat="40.41545" lon="-3.71361">
        <time>2022-09-16T05:48:26Z</time>
      </trkpt>
      <trkpt lat="40.41549" lon="-3.71362">
        <time>2022-09-16T05:48:26Z</time>
      </trkpt>
      <trkpt lat="40.41556" lon="-3.71362">
        <time>2022-09-16T05:48:26Z</time>
      </trkpt>
      <trkpt lat="40.41563" lon="-3.71359">
        <time>2022-09-16T05:48:26Z</time>
      </trkpt>
      <trkpt lat="40.41576" lon="-3.71355">
        <time>2022-09-16T05:48:26Z</time>
      </trkpt>
      <trkpt lat="40.41613" lon="-3.7135">
        <time>2022-09-16T05:48:26Z</time>
      </trkpt>
      <trkpt lat="40.41616" lon="-3.71349">
        <time>2022-09-16T05:48:26Z</time>
      </trkpt>
      <trkpt lat="40.41617" lon="-3.71348">
        <time>2022-09-16T05:48:26Z</time>
      </trkpt>
      <trkpt lat="40.41633" lon="-3.71344">
        <time>2022-09-16T05:48:26Z</time>
      </trkpt>
      <trkpt lat="40.41644" lon="-3.71337">
        <time>2022-09-16T05:48:26Z</time>
      </trkpt>
      <trkpt lat="40.41659" lon="-3.71335">
        <time>2022-09-16T05:48:26Z</time>
      </trkpt>
      <trkpt lat="40.41665" lon="-3.71335">
        <time>2022-09-16T05:48:26Z</time>
      </trkpt>
      <trkpt lat="40.41708" lon="-3.71331">
        <time>2022-09-16T05:48:26Z</time>
      </trkpt>
      <trkpt lat="40.41713" lon="-3.7133">
        <time>2022-09-16T05:48:26Z</time>
      </trkpt>
      <trkpt lat="40.41715" lon="-3.7133">
        <time>2022-09-16T05:48:26Z</time>
      </trkpt>
      <trkpt lat="40.41716" lon="-3.71329">
        <time>2022-09-16T05:48:26Z</time>
      </trkpt>
      <trkpt lat="40.41717" lon="-3.71329">
        <time>2022-09-16T05:48:26Z</time>
      </trkpt>
      <trkpt lat="40.41718" lon="-3.71328">
        <time>2022-09-16T05:48:26Z</time>
      </trkpt>
      <trkpt lat="40.41719" lon="-3.71327">
        <time>2022-09-16T05:48:26Z</time>
      </trkpt>
      <trkpt lat="40.41723" lon="-3.71324">
        <time>2022-09-16T05:48:26Z</time>
      </trkpt>
      <trkpt lat="40.41729" lon="-3.71324">
        <time>2022-09-16T05:48:26Z</time>
      </trkpt>
      <trkpt lat="40.41744" lon="-3.71322">
        <time>2022-09-16T05:48:26Z</time>
      </trkpt>
      <trkpt lat="40.41759" lon="-3.7132">
        <time>2022-09-16T05:48:26Z</time>
      </trkpt>
      <trkpt lat="40.41776" lon="-3.71318">
        <time>2022-09-16T05:48:26Z</time>
      </trkpt>
      <trkpt lat="40.41786" lon="-3.71317">
        <time>2022-09-16T05:48:26Z</time>
      </trkpt>
      <trkpt lat="40.41776" lon="-3.71318">
        <time>2022-09-16T05:48:26Z</time>
      </trkpt>
      <trkpt lat="40.41759" lon="-3.7132">
        <time>2022-09-16T05:48:26Z</time>
      </trkpt>
      <trkpt lat="40.41744" lon="-3.71322">
        <time>2022-09-16T05:48:26Z</time>
      </trkpt>
      <trkpt lat="40.41729" lon="-3.71324">
        <time>2022-09-16T05:48:26Z</time>
      </trkpt>
      <trkpt lat="40.41723" lon="-3.71324">
        <time>2022-09-16T05:48:26Z</time>
      </trkpt>
      <trkpt lat="40.41723" lon="-3.71308">
        <time>2022-09-16T05:48:26Z</time>
      </trkpt>
      <trkpt lat="40.41731" lon="-3.71307">
        <time>2022-09-16T05:48:26Z</time>
      </trkpt>
      <trkpt lat="40.41732" lon="-3.71307">
        <time>2022-09-16T05:48:26Z</time>
      </trkpt>
      <trkpt lat="40.41732" lon="-3.71306">
        <time>2022-09-16T05:48:26Z</time>
      </trkpt>
      <trkpt lat="40.41731" lon="-3.71302">
        <time>2022-09-16T05:48:26Z</time>
      </trkpt>
      <trkpt lat="40.4173" lon="-3.71285">
        <time>2022-09-16T05:48:26Z</time>
      </trkpt>
      <trkpt lat="40.4173" lon="-3.71284">
        <time>2022-09-16T05:48:26Z</time>
      </trkpt>
      <trkpt lat="40.4173" lon="-3.71282">
        <time>2022-09-16T05:48:26Z</time>
      </trkpt>
      <trkpt lat="40.41731" lon="-3.7128">
        <time>2022-09-16T05:48:26Z</time>
      </trkpt>
      <trkpt lat="40.41731" lon="-3.71279">
        <time>2022-09-16T05:48:26Z</time>
      </trkpt>
      <trkpt lat="40.41731" lon="-3.71278">
        <time>2022-09-16T05:48:26Z</time>
      </trkpt>
      <trkpt lat="40.41732" lon="-3.71276">
        <time>2022-09-16T05:48:26Z</time>
      </trkpt>
      <trkpt lat="40.41734" lon="-3.71274">
        <time>2022-09-16T05:48:26Z</time>
      </trkpt>
      <trkpt lat="40.41737" lon="-3.71273">
        <time>2022-09-16T05:48:26Z</time>
      </trkpt>
      <trkpt lat="40.4174" lon="-3.71271">
        <time>2022-09-16T05:48:26Z</time>
      </trkpt>
      <trkpt lat="40.41751" lon="-3.7127">
        <time>2022-09-16T05:48:26Z</time>
      </trkpt>
      <trkpt lat="40.41752" lon="-3.71274">
        <time>2022-09-16T05:48:26Z</time>
      </trkpt>
      <trkpt lat="40.41755" lon="-3.71276">
        <time>2022-09-16T05:48:26Z</time>
      </trkpt>
      <trkpt lat="40.41756" lon="-3.71277">
        <time>2022-09-16T05:48:26Z</time>
      </trkpt>
      <trkpt lat="40.41759" lon="-3.71278">
        <time>2022-09-16T05:48:26Z</time>
      </trkpt>
      <trkpt lat="40.41764" lon="-3.71278">
        <time>2022-09-16T05:48:26Z</time>
      </trkpt>
      <trkpt lat="40.41766" lon="-3.71278">
        <time>2022-09-16T05:48:26Z</time>
      </trkpt>
      <trkpt lat="40.41784" lon="-3.71276">
        <time>2022-09-16T05:48:26Z</time>
      </trkpt>
      <trkpt lat="40.41781" lon="-3.71239">
        <time>2022-09-16T05:48:26Z</time>
      </trkpt>
      <trkpt lat="40.41783" lon="-3.71239">
        <time>2022-09-16T05:48:26Z</time>
      </trkpt>
      <trkpt lat="40.41801" lon="-3.71237">
        <time>2022-09-16T05:48:26Z</time>
      </trkpt>
      <trkpt lat="40.41824" lon="-3.71235">
        <time>2022-09-16T05:48:26Z</time>
      </trkpt>
      <trkpt lat="40.41829" lon="-3.71237">
        <time>2022-09-16T05:48:26Z</time>
      </trkpt>
      <trkpt lat="40.41833" lon="-3.71238">
        <time>2022-09-16T05:48:26Z</time>
      </trkpt>
      <trkpt lat="40.41834" lon="-3.71238">
        <time>2022-09-16T05:48:26Z</time>
      </trkpt>
      <trkpt lat="40.41835" lon="-3.71238">
        <time>2022-09-16T05:48:26Z</time>
      </trkpt>
      <trkpt lat="40.41837" lon="-3.71238">
        <time>2022-09-16T05:48:26Z</time>
      </trkpt>
      <trkpt lat="40.41839" lon="-3.71237">
        <time>2022-09-16T05:48:26Z</time>
      </trkpt>
      <trkpt lat="40.41844" lon="-3.71232">
        <time>2022-09-16T05:48:26Z</time>
      </trkpt>
      <trkpt lat="40.41868" lon="-3.7123">
        <time>2022-09-16T05:48:26Z</time>
      </trkpt>
      <trkpt lat="40.41867" lon="-3.71209">
        <time>2022-09-16T05:48:26Z</time>
      </trkpt>
      <trkpt lat="40.41867" lon="-3.712">
        <time>2022-09-16T05:48:26Z</time>
      </trkpt>
      <trkpt lat="40.41864" lon="-3.71168">
        <time>2022-09-16T05:48:26Z</time>
      </trkpt>
      <trkpt lat="40.41857" lon="-3.71164">
        <time>2022-09-16T05:48:26Z</time>
      </trkpt>
      <trkpt lat="40.41853" lon="-3.71162">
        <time>2022-09-16T05:48:26Z</time>
      </trkpt>
      <trkpt lat="40.41848" lon="-3.7116">
        <time>2022-09-16T05:48:26Z</time>
      </trkpt>
      <trkpt lat="40.41843" lon="-3.71158">
        <time>2022-09-16T05:48:26Z</time>
      </trkpt>
      <trkpt lat="40.41837" lon="-3.71158">
        <time>2022-09-16T05:48:26Z</time>
      </trkpt>
      <trkpt lat="40.41831" lon="-3.71158">
        <time>2022-09-16T05:48:26Z</time>
      </trkpt>
      <trkpt lat="40.41825" lon="-3.71158">
        <time>2022-09-16T05:48:26Z</time>
      </trkpt>
      <trkpt lat="40.4182" lon="-3.7116">
        <time>2022-09-16T05:48:26Z</time>
      </trkpt>
      <trkpt lat="40.41816" lon="-3.71161">
        <time>2022-09-16T05:48:26Z</time>
      </trkpt>
      <trkpt lat="40.4181" lon="-3.71139">
        <time>2022-09-16T05:48:26Z</time>
      </trkpt>
      <trkpt lat="40.41809" lon="-3.71136">
        <time>2022-09-16T05:48:26Z</time>
      </trkpt>
      <trkpt lat="40.41803" lon="-3.71114">
        <time>2022-09-16T05:48:26Z</time>
      </trkpt>
      <trkpt lat="40.41797" lon="-3.71092">
        <time>2022-09-16T05:48:26Z</time>
      </trkpt>
      <trkpt lat="40.41791" lon="-3.71069">
        <time>2022-09-16T05:48:26Z</time>
      </trkpt>
      <trkpt lat="40.41791" lon="-3.71068">
        <time>2022-09-16T05:48:26Z</time>
      </trkpt>
      <trkpt lat="40.4179" lon="-3.71066">
        <time>2022-09-16T05:48:26Z</time>
      </trkpt>
      <trkpt lat="40.41789" lon="-3.71064">
        <time>2022-09-16T05:48:26Z</time>
      </trkpt>
      <trkpt lat="40.41787" lon="-3.71062">
        <time>2022-09-16T05:48:26Z</time>
      </trkpt>
      <trkpt lat="40.41785" lon="-3.7106">
        <time>2022-09-16T05:48:26Z</time>
      </trkpt>
      <trkpt lat="40.41783" lon="-3.71059">
        <time>2022-09-16T05:48:26Z</time>
      </trkpt>
      <trkpt lat="40.41778" lon="-3.71066">
        <time>2022-09-16T05:48:26Z</time>
      </trkpt>
      <trkpt lat="40.41772" lon="-3.71059">
        <time>2022-09-16T05:48:26Z</time>
      </trkpt>
      <trkpt lat="40.41756" lon="-3.71086">
        <time>2022-09-16T05:48:26Z</time>
      </trkpt>
      <trkpt lat="40.41723" lon="-3.71081">
        <time>2022-09-16T05:48:26Z</time>
      </trkpt>
      <trkpt lat="40.41717" lon="-3.71082">
        <time>2022-09-16T05:48:26Z</time>
      </trkpt>
      <trkpt lat="40.4171" lon="-3.71081">
        <time>2022-09-16T05:48:26Z</time>
      </trkpt>
      <trkpt lat="40.41701" lon="-3.7108">
        <time>2022-09-16T05:48:26Z</time>
      </trkpt>
      <trkpt lat="40.41695" lon="-3.71079">
        <time>2022-09-16T05:48:26Z</time>
      </trkpt>
      <trkpt lat="40.41679" lon="-3.71077">
        <time>2022-09-16T05:48:26Z</time>
      </trkpt>
      <trkpt lat="40.41673" lon="-3.71077">
        <time>2022-09-16T05:48:26Z</time>
      </trkpt>
      <trkpt lat="40.41667" lon="-3.71076">
        <time>2022-09-16T05:48:26Z</time>
      </trkpt>
      <trkpt lat="40.41664" lon="-3.71073">
        <time>2022-09-16T05:48:26Z</time>
      </trkpt>
      <trkpt lat="40.41662" lon="-3.71073">
        <time>2022-09-16T05:48:26Z</time>
      </trkpt>
      <trkpt lat="40.41648" lon="-3.7104">
        <time>2022-09-16T05:48:26Z</time>
      </trkpt>
      <trkpt lat="40.4164" lon="-3.71021">
        <time>2022-09-16T05:48:26Z</time>
      </trkpt>
      <trkpt lat="40.41625" lon="-3.70983">
        <time>2022-09-16T05:48:26Z</time>
      </trkpt>
      <trkpt lat="40.41622" lon="-3.70978">
        <time>2022-09-16T05:48:26Z</time>
      </trkpt>
      <trkpt lat="40.41616" lon="-3.70964">
        <time>2022-09-16T05:48:26Z</time>
      </trkpt>
      <trkpt lat="40.41616" lon="-3.70963">
        <time>2022-09-16T05:48:26Z</time>
      </trkpt>
      <trkpt lat="40.41613" lon="-3.7096">
        <time>2022-09-16T05:48:26Z</time>
      </trkpt>
      <trkpt lat="40.41618" lon="-3.70942">
        <time>2022-09-16T05:48:26Z</time>
      </trkpt>
      <trkpt lat="40.41619" lon="-3.70938">
        <time>2022-09-16T05:48:26Z</time>
      </trkpt>
      <trkpt lat="40.41623" lon="-3.70915">
        <time>2022-09-16T05:48:26Z</time>
      </trkpt>
      <trkpt lat="40.41624" lon="-3.70906">
        <time>2022-09-16T05:48:26Z</time>
      </trkpt>
      <trkpt lat="40.41628" lon="-3.70885">
        <time>2022-09-16T05:48:26Z</time>
      </trkpt>
      <trkpt lat="40.41628" lon="-3.70879">
        <time>2022-09-16T05:48:26Z</time>
      </trkpt>
      <trkpt lat="40.41631" lon="-3.70867">
        <time>2022-09-16T05:48:26Z</time>
      </trkpt>
      <trkpt lat="40.41633" lon="-3.70862">
        <time>2022-09-16T05:48:26Z</time>
      </trkpt>
      <trkpt lat="40.41637" lon="-3.70853">
        <time>2022-09-16T05:48:26Z</time>
      </trkpt>
      <trkpt lat="40.41639" lon="-3.70847">
        <time>2022-09-16T05:48:26Z</time>
      </trkpt>
      <trkpt lat="40.41639" lon="-3.70838">
        <time>2022-09-16T05:48:26Z</time>
      </trkpt>
      <trkpt lat="40.41638" lon="-3.70835">
        <time>2022-09-16T05:48:26Z</time>
      </trkpt>
      <trkpt lat="40.41637" lon="-3.70832">
        <time>2022-09-16T05:48:26Z</time>
      </trkpt>
      <trkpt lat="40.41633" lon="-3.70828">
        <time>2022-09-16T05:48:26Z</time>
      </trkpt>
      <trkpt lat="40.41637" lon="-3.70832">
        <time>2022-09-16T05:48:26Z</time>
      </trkpt>
      <trkpt lat="40.41638" lon="-3.70835">
        <time>2022-09-16T05:48:26Z</time>
      </trkpt>
      <trkpt lat="40.41639" lon="-3.70837">
        <time>2022-09-16T05:48:26Z</time>
      </trkpt>
      <trkpt lat="40.41639" lon="-3.70839">
        <time>2022-09-16T05:48:26Z</time>
      </trkpt>
      <trkpt lat="40.41639" lon="-3.70847">
        <time>2022-09-16T05:48:26Z</time>
      </trkpt>
      <trkpt lat="40.41637" lon="-3.70853">
        <time>2022-09-16T05:48:26Z</time>
      </trkpt>
      <trkpt lat="40.41633" lon="-3.70862">
        <time>2022-09-16T05:48:26Z</time>
      </trkpt>
      <trkpt lat="40.41631" lon="-3.70867">
        <time>2022-09-16T05:48:26Z</time>
      </trkpt>
      <trkpt lat="40.4162" lon="-3.70867">
        <time>2022-09-16T05:48:26Z</time>
      </trkpt>
      <trkpt lat="40.41602" lon="-3.70863">
        <time>2022-09-16T05:48:26Z</time>
      </trkpt>
      <trkpt lat="40.41605" lon="-3.7085">
        <time>2022-09-16T05:48:26Z</time>
      </trkpt>
      <trkpt lat="40.41596" lon="-3.70847">
        <time>2022-09-16T05:48:26Z</time>
      </trkpt>
      <trkpt lat="40.4159" lon="-3.70864">
        <time>2022-09-16T05:48:26Z</time>
      </trkpt>
      <trkpt lat="40.41588" lon="-3.70875">
        <time>2022-09-16T05:48:26Z</time>
      </trkpt>
      <trkpt lat="40.41584" lon="-3.70873">
        <time>2022-09-16T05:48:26Z</time>
      </trkpt>
      <trkpt lat="40.4158" lon="-3.70872">
        <time>2022-09-16T05:48:26Z</time>
      </trkpt>
      <trkpt lat="40.41578" lon="-3.7086">
        <time>2022-09-16T05:48:26Z</time>
      </trkpt>
      <trkpt lat="40.41571" lon="-3.70827">
        <time>2022-09-16T05:48:26Z</time>
      </trkpt>
      <trkpt lat="40.41569" lon="-3.70818">
        <time>2022-09-16T05:48:26Z</time>
      </trkpt>
      <trkpt lat="40.41568" lon="-3.70814">
        <time>2022-09-16T05:48:26Z</time>
      </trkpt>
      <trkpt lat="40.41568" lon="-3.70811">
        <time>2022-09-16T05:48:26Z</time>
      </trkpt>
      <trkpt lat="40.41564" lon="-3.70794">
        <time>2022-09-16T05:48:26Z</time>
      </trkpt>
      <trkpt lat="40.41512" lon="-3.70791">
        <time>2022-09-16T05:48:26Z</time>
      </trkpt>
      <trkpt lat="40.41514" lon="-3.70765">
        <time>2022-09-16T05:48:26Z</time>
      </trkpt>
      <trkpt lat="40.41515" lon="-3.70741">
        <time>2022-09-16T05:48:26Z</time>
      </trkpt>
      <trkpt lat="40.41517" lon="-3.70718">
        <time>2022-09-16T05:48:26Z</time>
      </trkpt>
      <trkpt lat="40.41518" lon="-3.70685">
        <time>2022-09-16T05:48:26Z</time>
      </trkpt>
      <trkpt lat="40.41519" lon="-3.70677">
        <time>2022-09-16T05:48:26Z</time>
      </trkpt>
      <trkpt lat="40.41516" lon="-3.70673">
        <time>2022-09-16T05:48:26Z</time>
      </trkpt>
      <trkpt lat="40.41511" lon="-3.70654">
        <time>2022-09-16T05:48:26Z</time>
      </trkpt>
      <trkpt lat="40.41498" lon="-3.70613">
        <time>2022-09-16T05:48:26Z</time>
      </trkpt>
      <trkpt lat="40.41496" lon="-3.70604">
        <time>2022-09-16T05:48:26Z</time>
      </trkpt>
      <trkpt lat="40.41489" lon="-3.70582">
        <time>2022-09-16T05:48:26Z</time>
      </trkpt>
      <trkpt lat="40.41487" lon="-3.70583">
        <time>2022-09-16T05:48:26Z</time>
      </trkpt>
      <trkpt lat="40.41485" lon="-3.70602">
        <time>2022-09-16T05:48:26Z</time>
      </trkpt>
      <trkpt lat="40.41477" lon="-3.70601">
        <time>2022-09-16T05:48:26Z</time>
      </trkpt>
      <trkpt lat="40.41478" lon="-3.70584">
        <time>2022-09-16T05:48:26Z</time>
      </trkpt>
      <trkpt lat="40.41478" lon="-3.70574">
        <time>2022-09-16T05:48:26Z</time>
      </trkpt>
      <trkpt lat="40.41477" lon="-3.70569">
        <time>2022-09-16T05:48:26Z</time>
      </trkpt>
      <trkpt lat="40.41477" lon="-3.70567">
        <time>2022-09-16T05:48:26Z</time>
      </trkpt>
      <trkpt lat="40.41476" lon="-3.7056">
        <time>2022-09-16T05:48:26Z</time>
      </trkpt>
      <trkpt lat="40.41475" lon="-3.70557">
        <time>2022-09-16T05:48:26Z</time>
      </trkpt>
      <trkpt lat="40.41466" lon="-3.70525">
        <time>2022-09-16T05:48:26Z</time>
      </trkpt>
      <trkpt lat="40.41464" lon="-3.70517">
        <time>2022-09-16T05:48:26Z</time>
      </trkpt>
      <trkpt lat="40.41461" lon="-3.70508">
        <time>2022-09-16T05:48:26Z</time>
      </trkpt>
      <trkpt lat="40.41451" lon="-3.70478">
        <time>2022-09-16T05:48:26Z</time>
      </trkpt>
      <trkpt lat="40.41447" lon="-3.70463">
        <time>2022-09-16T05:48:26Z</time>
      </trkpt>
      <trkpt lat="40.41441" lon="-3.70443">
        <time>2022-09-16T05:48:26Z</time>
      </trkpt>
      <trkpt lat="40.41436" lon="-3.70426">
        <time>2022-09-16T05:48:26Z</time>
      </trkpt>
      <trkpt lat="40.41434" lon="-3.70414">
        <time>2022-09-16T05:48:26Z</time>
      </trkpt>
      <trkpt lat="40.41433" lon="-3.70411">
        <time>2022-09-16T05:48:26Z</time>
      </trkpt>
      <trkpt lat="40.41431" lon="-3.70404">
        <time>2022-09-16T05:48:26Z</time>
      </trkpt>
      <trkpt lat="40.4143" lon="-3.70397">
        <time>2022-09-16T05:48:26Z</time>
      </trkpt>
      <trkpt lat="40.41429" lon="-3.704">
        <time>2022-09-16T05:48:26Z</time>
      </trkpt>
      <trkpt lat="40.41428" lon="-3.70402">
        <time>2022-09-16T05:48:26Z</time>
      </trkpt>
      <trkpt lat="40.41425" lon="-3.70399">
        <time>2022-09-16T05:48:26Z</time>
      </trkpt>
      <trkpt lat="40.41424" lon="-3.70398">
        <time>2022-09-16T05:48:26Z</time>
      </trkpt>
      <trkpt lat="40.41427" lon="-3.70392">
        <time>2022-09-16T05:48:26Z</time>
      </trkpt>
      <trkpt lat="40.41416" lon="-3.70361">
        <time>2022-09-16T05:48:26Z</time>
      </trkpt>
      <trkpt lat="40.41416" lon="-3.70354">
        <time>2022-09-16T05:48:26Z</time>
      </trkpt>
      <trkpt lat="40.41412" lon="-3.70353">
        <time>2022-09-16T05:48:26Z</time>
      </trkpt>
      <trkpt lat="40.4141" lon="-3.70347">
        <time>2022-09-16T05:48:26Z</time>
      </trkpt>
      <trkpt lat="40.41408" lon="-3.70344">
        <time>2022-09-16T05:48:26Z</time>
      </trkpt>
      <trkpt lat="40.41416" lon="-3.70339">
        <time>2022-09-16T05:48:26Z</time>
      </trkpt>
      <trkpt lat="40.41429" lon="-3.7033">
        <time>2022-09-16T05:48:26Z</time>
      </trkpt>
      <trkpt lat="40.41432" lon="-3.70327">
        <time>2022-09-16T05:48:26Z</time>
      </trkpt>
      <trkpt lat="40.41432" lon="-3.70327">
        <time>2022-09-16T05:48:42Z</time>
      </trkpt>
      <trkpt lat="40.41429" lon="-3.7033">
        <time>2022-09-16T05:48:42Z</time>
      </trkpt>
      <trkpt lat="40.41416" lon="-3.70339">
        <time>2022-09-16T05:48:42Z</time>
      </trkpt>
      <trkpt lat="40.41407" lon="-3.70311">
        <time>2022-09-16T05:48:42Z</time>
      </trkpt>
      <trkpt lat="40.41405" lon="-3.70306">
        <time>2022-09-16T05:48:42Z</time>
      </trkpt>
      <trkpt lat="40.414" lon="-3.70293">
        <time>2022-09-16T05:48:42Z</time>
      </trkpt>
      <trkpt lat="40.41398" lon="-3.70283">
        <time>2022-09-16T05:48:42Z</time>
      </trkpt>
      <trkpt lat="40.41394" lon="-3.70271">
        <time>2022-09-16T05:48:42Z</time>
      </trkpt>
      <trkpt lat="40.41379" lon="-3.7023">
        <time>2022-09-16T05:48:42Z</time>
      </trkpt>
      <trkpt lat="40.41374" lon="-3.70214">
        <time>2022-09-16T05:48:42Z</time>
      </trkpt>
      <trkpt lat="40.41359" lon="-3.70172">
        <time>2022-09-16T05:48:42Z</time>
      </trkpt>
      <trkpt lat="40.4136" lon="-3.70172">
        <time>2022-09-16T05:48:42Z</time>
      </trkpt>
      <trkpt lat="40.41359" lon="-3.7017">
        <time>2022-09-16T05:48:42Z</time>
      </trkpt>
      <trkpt lat="40.41357" lon="-3.70163">
        <time>2022-09-16T05:48:42Z</time>
      </trkpt>
      <trkpt lat="40.41356" lon="-3.7016">
        <time>2022-09-16T05:48:42Z</time>
      </trkpt>
      <trkpt lat="40.41408" lon="-3.70137">
        <time>2022-09-16T05:48:42Z</time>
      </trkpt>
      <trkpt lat="40.41413" lon="-3.70136">
        <time>2022-09-16T05:48:42Z</time>
      </trkpt>
      <trkpt lat="40.41411" lon="-3.70124">
        <time>2022-09-16T05:48:42Z</time>
      </trkpt>
      <trkpt lat="40.41397" lon="-3.70051">
        <time>2022-09-16T05:48:42Z</time>
      </trkpt>
      <trkpt lat="40.41389" lon="-3.70011">
        <time>2022-09-16T05:48:42Z</time>
      </trkpt>
      <trkpt lat="40.41453" lon="-3.70019">
        <time>2022-09-16T05:48:42Z</time>
      </trkpt>
      <trkpt lat="40.41448" lon="-3.70046">
        <time>2022-09-16T05:48:42Z</time>
      </trkpt>
      <trkpt lat="40.41451" lon="-3.70054">
        <time>2022-09-16T05:48:42Z</time>
      </trkpt>
      <trkpt lat="40.41451" lon="-3.70062">
        <time>2022-09-16T05:48:42Z</time>
      </trkpt>
      <trkpt lat="40.4145" lon="-3.70073">
        <time>2022-09-16T05:48:42Z</time>
      </trkpt>
      <trkpt lat="40.41449" lon="-3.70079">
        <time>2022-09-16T05:48:42Z</time>
      </trkpt>
      <trkpt lat="40.41451" lon="-3.70082">
        <time>2022-09-16T05:48:42Z</time>
      </trkpt>
      <trkpt lat="40.41455" lon="-3.70076">
        <time>2022-09-16T05:48:42Z</time>
      </trkpt>
      <trkpt lat="40.41455" lon="-3.70069">
        <time>2022-09-16T05:48:42Z</time>
      </trkpt>
      <trkpt lat="40.41456" lon="-3.70062">
        <time>2022-09-16T05:48:42Z</time>
      </trkpt>
      <trkpt lat="40.41456" lon="-3.70055">
        <time>2022-09-16T05:48:42Z</time>
      </trkpt>
      <trkpt lat="40.41455" lon="-3.70051">
        <time>2022-09-16T05:48:42Z</time>
      </trkpt>
      <trkpt lat="40.41454" lon="-3.70047">
        <time>2022-09-16T05:48:42Z</time>
      </trkpt>
      <trkpt lat="40.41458" lon="-3.70023">
        <time>2022-09-16T05:48:42Z</time>
      </trkpt>
      <trkpt lat="40.41453" lon="-3.70021">
        <time>2022-09-16T05:48:42Z</time>
      </trkpt>
      <trkpt lat="40.41453" lon="-3.70019">
        <time>2022-09-16T05:48:42Z</time>
      </trkpt>
      <trkpt lat="40.41462" lon="-3.69958">
        <time>2022-09-16T05:48:42Z</time>
      </trkpt>
      <trkpt lat="40.41422" lon="-3.69956">
        <time>2022-09-16T05:48:42Z</time>
      </trkpt>
      <trkpt lat="40.41393" lon="-3.69955">
        <time>2022-09-16T05:48:42Z</time>
      </trkpt>
      <trkpt lat="40.41378" lon="-3.69954">
        <time>2022-09-16T05:48:42Z</time>
      </trkpt>
      <trkpt lat="40.41373" lon="-3.69956">
        <time>2022-09-16T05:48:42Z</time>
      </trkpt>
      <trkpt lat="40.41377" lon="-3.69972">
        <time>2022-09-16T05:48:42Z</time>
      </trkpt>
      <trkpt lat="40.41327" lon="-3.6999">
        <time>2022-09-16T05:48:42Z</time>
      </trkpt>
      <trkpt lat="40.41291" lon="-3.70003">
        <time>2022-09-16T05:48:42Z</time>
      </trkpt>
      <trkpt lat="40.41278" lon="-3.69977">
        <time>2022-09-16T05:48:42Z</time>
      </trkpt>
      <trkpt lat="40.41265" lon="-3.69952">
        <time>2022-09-16T05:48:42Z</time>
      </trkpt>
      <trkpt lat="40.41261" lon="-3.69944">
        <time>2022-09-16T05:48:42Z</time>
      </trkpt>
      <trkpt lat="40.41258" lon="-3.69936">
        <time>2022-09-16T05:48:42Z</time>
      </trkpt>
      <trkpt lat="40.41265" lon="-3.69933">
        <time>2022-09-16T05:48:42Z</time>
      </trkpt>
      <trkpt lat="40.41282" lon="-3.69926">
        <time>2022-09-16T05:48:42Z</time>
      </trkpt>
      <trkpt lat="40.41299" lon="-3.69919">
        <time>2022-09-16T05:48:42Z</time>
      </trkpt>
      <trkpt lat="40.41331" lon="-3.69905">
        <time>2022-09-16T05:48:42Z</time>
      </trkpt>
      <trkpt lat="40.41338" lon="-3.69907">
        <time>2022-09-16T05:48:42Z</time>
      </trkpt>
      <trkpt lat="40.41359" lon="-3.69899">
        <time>2022-09-16T05:48:42Z</time>
      </trkpt>
      <trkpt lat="40.41367" lon="-3.69895">
        <time>2022-09-16T05:48:42Z</time>
      </trkpt>
      <trkpt lat="40.41391" lon="-3.69886">
        <time>2022-09-16T05:48:42Z</time>
      </trkpt>
      <trkpt lat="40.41382" lon="-3.69844">
        <time>2022-09-16T05:48:42Z</time>
      </trkpt>
      <trkpt lat="40.41379" lon="-3.6982">
        <time>2022-09-16T05:48:42Z</time>
      </trkpt>
      <trkpt lat="40.41375" lon="-3.69785">
        <time>2022-09-16T05:48:42Z</time>
      </trkpt>
      <trkpt lat="40.41373" lon="-3.69774">
        <time>2022-09-16T05:48:42Z</time>
      </trkpt>
      <trkpt lat="40.41371" lon="-3.6977">
        <time>2022-09-16T05:48:42Z</time>
      </trkpt>
      <trkpt lat="40.41376" lon="-3.69769">
        <time>2022-09-16T05:48:42Z</time>
      </trkpt>
      <trkpt lat="40.41398" lon="-3.69768">
        <time>2022-09-16T05:48:42Z</time>
      </trkpt>
      <trkpt lat="40.41399" lon="-3.69768">
        <time>2022-09-16T05:48:42Z</time>
      </trkpt>
      <trkpt lat="40.4143" lon="-3.69765">
        <time>2022-09-16T05:48:42Z</time>
      </trkpt>
      <trkpt lat="40.41436" lon="-3.69765">
        <time>2022-09-16T05:48:42Z</time>
      </trkpt>
      <trkpt lat="40.41438" lon="-3.69769">
        <time>2022-09-16T05:48:42Z</time>
      </trkpt>
      <trkpt lat="40.41438" lon="-3.69799">
        <time>2022-09-16T05:48:42Z</time>
      </trkpt>
      <trkpt lat="40.41438" lon="-3.698">
        <time>2022-09-16T05:48:42Z</time>
      </trkpt>
      <trkpt lat="40.41438" lon="-3.69822">
        <time>2022-09-16T05:48:42Z</time>
      </trkpt>
      <trkpt lat="40.41438" lon="-3.69844">
        <time>2022-09-16T05:48:42Z</time>
      </trkpt>
      <trkpt lat="40.41438" lon="-3.69863">
        <time>2022-09-16T05:48:42Z</time>
      </trkpt>
      <trkpt lat="40.4143" lon="-3.69869">
        <time>2022-09-16T05:48:42Z</time>
      </trkpt>
      <trkpt lat="40.4143" lon="-3.69844">
        <time>2022-09-16T05:48:42Z</time>
      </trkpt>
      <trkpt lat="40.4143" lon="-3.69822">
        <time>2022-09-16T05:48:42Z</time>
      </trkpt>
      <trkpt lat="40.4143" lon="-3.698">
        <time>2022-09-16T05:48:42Z</time>
      </trkpt>
      <trkpt lat="40.4143" lon="-3.69798">
        <time>2022-09-16T05:48:42Z</time>
      </trkpt>
      <trkpt lat="40.4143" lon="-3.69772">
        <time>2022-09-16T05:48:42Z</time>
      </trkpt>
      <trkpt lat="40.4143" lon="-3.69765">
        <time>2022-09-16T05:48:42Z</time>
      </trkpt>
      <trkpt lat="40.4143" lon="-3.69755">
        <time>2022-09-16T05:48:42Z</time>
      </trkpt>
      <trkpt lat="40.4143" lon="-3.69746">
        <time>2022-09-16T05:48:42Z</time>
      </trkpt>
      <trkpt lat="40.41431" lon="-3.6974">
        <time>2022-09-16T05:48:42Z</time>
      </trkpt>
      <trkpt lat="40.4143" lon="-3.69715">
        <time>2022-09-16T05:48:42Z</time>
      </trkpt>
      <trkpt lat="40.4143" lon="-3.69696">
        <time>2022-09-16T05:48:42Z</time>
      </trkpt>
      <trkpt lat="40.41434" lon="-3.69697">
        <time>2022-09-16T05:48:42Z</time>
      </trkpt>
      <trkpt lat="40.41436" lon="-3.69697">
        <time>2022-09-16T05:48:42Z</time>
      </trkpt>
      <trkpt lat="40.41438" lon="-3.69697">
        <time>2022-09-16T05:48:42Z</time>
      </trkpt>
      <trkpt lat="40.41439" lon="-3.69697">
        <time>2022-09-16T05:48:42Z</time>
      </trkpt>
      <trkpt lat="40.41443" lon="-3.69697">
        <time>2022-09-16T05:48:42Z</time>
      </trkpt>
      <trkpt lat="40.41456" lon="-3.69696">
        <time>2022-09-16T05:48:42Z</time>
      </trkpt>
      <trkpt lat="40.41492" lon="-3.69693">
        <time>2022-09-16T05:48:42Z</time>
      </trkpt>
      <trkpt lat="40.4151" lon="-3.69693">
        <time>2022-09-16T05:48:42Z</time>
      </trkpt>
      <trkpt lat="40.41541" lon="-3.69691">
        <time>2022-09-16T05:48:42Z</time>
      </trkpt>
      <trkpt lat="40.41545" lon="-3.69683">
        <time>2022-09-16T05:48:42Z</time>
      </trkpt>
      <trkpt lat="40.41556" lon="-3.69648">
        <time>2022-09-16T05:48:42Z</time>
      </trkpt>
      <trkpt lat="40.41556" lon="-3.69634">
        <time>2022-09-16T05:48:42Z</time>
      </trkpt>
      <trkpt lat="40.41561" lon="-3.69616">
        <time>2022-09-16T05:48:42Z</time>
      </trkpt>
      <trkpt lat="40.41563" lon="-3.6961">
        <time>2022-09-16T05:48:42Z</time>
      </trkpt>
      <trkpt lat="40.41565" lon="-3.69604">
        <time>2022-09-16T05:48:42Z</time>
      </trkpt>
      <trkpt lat="40.41564" lon="-3.696">
        <time>2022-09-16T05:48:42Z</time>
      </trkpt>
      <trkpt lat="40.41556" lon="-3.69599">
        <time>2022-09-16T05:48:42Z</time>
      </trkpt>
      <trkpt lat="40.41554" lon="-3.69599">
        <time>2022-09-16T05:48:42Z</time>
      </trkpt>
      <trkpt lat="40.41555" lon="-3.69593">
        <time>2022-09-16T05:48:42Z</time>
      </trkpt>
      <trkpt lat="40.41556" lon="-3.69587">
        <time>2022-09-16T05:48:42Z</time>
      </trkpt>
      <trkpt lat="40.41556" lon="-3.69586">
        <time>2022-09-16T05:48:42Z</time>
      </trkpt>
      <trkpt lat="40.41564" lon="-3.69586">
        <time>2022-09-16T05:48:42Z</time>
      </trkpt>
      <trkpt lat="40.4156" lon="-3.69583">
        <time>2022-09-16T05:48:42Z</time>
      </trkpt>
      <trkpt lat="40.41546" lon="-3.69532">
        <time>2022-09-16T05:48:42Z</time>
      </trkpt>
      <trkpt lat="40.41542" lon="-3.6952">
        <time>2022-09-16T05:48:42Z</time>
      </trkpt>
      <trkpt lat="40.41535" lon="-3.69494">
        <time>2022-09-16T05:48:42Z</time>
      </trkpt>
      <trkpt lat="40.41534" lon="-3.69491">
        <time>2022-09-16T05:48:42Z</time>
      </trkpt>
      <trkpt lat="40.41524" lon="-3.69488">
        <time>2022-09-16T05:48:42Z</time>
      </trkpt>
      <trkpt lat="40.41492" lon="-3.69476">
        <time>2022-09-16T05:48:42Z</time>
      </trkpt>
      <trkpt lat="40.41491" lon="-3.69478">
        <time>2022-09-16T05:48:42Z</time>
      </trkpt>
      <trkpt lat="40.41491" lon="-3.6948">
        <time>2022-09-16T05:48:42Z</time>
      </trkpt>
      <trkpt lat="40.4149" lon="-3.69479">
        <time>2022-09-16T05:48:42Z</time>
      </trkpt>
      <trkpt lat="40.41488" lon="-3.69477">
        <time>2022-09-16T05:48:42Z</time>
      </trkpt>
      <trkpt lat="40.41487" lon="-3.69476">
        <time>2022-09-16T05:48:42Z</time>
      </trkpt>
      <trkpt lat="40.41488" lon="-3.69475">
        <time>2022-09-16T05:48:42Z</time>
      </trkpt>
      <trkpt lat="40.41489" lon="-3.69472">
        <time>2022-09-16T05:48:42Z</time>
      </trkpt>
      <trkpt lat="40.41488" lon="-3.69466">
        <time>2022-09-16T05:48:42Z</time>
      </trkpt>
      <trkpt lat="40.41479" lon="-3.6944">
        <time>2022-09-16T05:48:42Z</time>
      </trkpt>
      <trkpt lat="40.41461" lon="-3.69434">
        <time>2022-09-16T05:48:42Z</time>
      </trkpt>
      <trkpt lat="40.41463" lon="-3.69415">
        <time>2022-09-16T05:48:42Z</time>
      </trkpt>
      <trkpt lat="40.41463" lon="-3.69413">
        <time>2022-09-16T05:48:42Z</time>
      </trkpt>
      <trkpt lat="40.41466" lon="-3.69379">
        <time>2022-09-16T05:48:42Z</time>
      </trkpt>
      <trkpt lat="40.41469" lon="-3.69343">
        <time>2022-09-16T05:48:42Z</time>
      </trkpt>
      <trkpt lat="40.41463" lon="-3.69341">
        <time>2022-09-16T05:48:42Z</time>
      </trkpt>
      <trkpt lat="40.41466" lon="-3.69324">
        <time>2022-09-16T05:48:42Z</time>
      </trkpt>
      <trkpt lat="40.41466" lon="-3.6932">
        <time>2022-09-16T05:48:42Z</time>
      </trkpt>
      <trkpt lat="40.41471" lon="-3.69319">
        <time>2022-09-16T05:48:42Z</time>
      </trkpt>
      <trkpt lat="40.41473" lon="-3.6931">
        <time>2022-09-16T05:48:42Z</time>
      </trkpt>
      <trkpt lat="40.41456" lon="-3.69306">
        <time>2022-09-16T05:48:42Z</time>
      </trkpt>
      <trkpt lat="40.41441" lon="-3.69303">
        <time>2022-09-16T05:48:42Z</time>
      </trkpt>
      <trkpt lat="40.41443" lon="-3.69288">
        <time>2022-09-16T05:48:42Z</time>
      </trkpt>
      <trkpt lat="40.41445" lon="-3.69273">
        <time>2022-09-16T05:48:42Z</time>
      </trkpt>
      <trkpt lat="40.41432" lon="-3.6927">
        <time>2022-09-16T05:48:42Z</time>
      </trkpt>
      <trkpt lat="40.41431" lon="-3.6927">
        <time>2022-09-16T05:48:42Z</time>
      </trkpt>
      <trkpt lat="40.41425" lon="-3.69268">
        <time>2022-09-16T05:48:42Z</time>
      </trkpt>
      <trkpt lat="40.41425" lon="-3.69269">
        <time>2022-09-16T05:48:42Z</time>
      </trkpt>
      <trkpt lat="40.41404" lon="-3.69264">
        <time>2022-09-16T05:48:42Z</time>
      </trkpt>
      <trkpt lat="40.41374" lon="-3.69257">
        <time>2022-09-16T05:48:42Z</time>
      </trkpt>
      <trkpt lat="40.41377" lon="-3.69235">
        <time>2022-09-16T05:48:42Z</time>
      </trkpt>
      <trkpt lat="40.41383" lon="-3.69232">
        <time>2022-09-16T05:48:42Z</time>
      </trkpt>
      <trkpt lat="40.41387" lon="-3.69229">
        <time>2022-09-16T05:48:42Z</time>
      </trkpt>
      <trkpt lat="40.41388" lon="-3.69225">
        <time>2022-09-16T05:48:42Z</time>
      </trkpt>
      <trkpt lat="40.41389" lon="-3.69216">
        <time>2022-09-16T05:48:42Z</time>
      </trkpt>
      <trkpt lat="40.41388" lon="-3.69216">
        <time>2022-09-16T05:48:42Z</time>
      </trkpt>
      <trkpt lat="40.41387" lon="-3.69216">
        <time>2022-09-16T05:48:42Z</time>
      </trkpt>
      <trkpt lat="40.41381" lon="-3.69219">
        <time>2022-09-16T05:48:42Z</time>
      </trkpt>
      <trkpt lat="40.4138" lon="-3.69221">
        <time>2022-09-16T05:48:42Z</time>
      </trkpt>
      <trkpt lat="40.41377" lon="-3.69235">
        <time>2022-09-16T05:48:42Z</time>
      </trkpt>
      <trkpt lat="40.41374" lon="-3.69257">
        <time>2022-09-16T05:48:42Z</time>
      </trkpt>
      <trkpt lat="40.41361" lon="-3.69254">
        <time>2022-09-16T05:48:42Z</time>
      </trkpt>
      <trkpt lat="40.41344" lon="-3.6925">
        <time>2022-09-16T05:48:42Z</time>
      </trkpt>
      <trkpt lat="40.41326" lon="-3.69246">
        <time>2022-09-16T05:48:42Z</time>
      </trkpt>
      <trkpt lat="40.4132" lon="-3.69245">
        <time>2022-09-16T05:48:42Z</time>
      </trkpt>
      <trkpt lat="40.41318" lon="-3.69261">
        <time>2022-09-16T05:48:42Z</time>
      </trkpt>
      <trkpt lat="40.41316" lon="-3.69276">
        <time>2022-09-16T05:48:42Z</time>
      </trkpt>
      <trkpt lat="40.41301" lon="-3.69274">
        <time>2022-09-16T05:48:42Z</time>
      </trkpt>
      <trkpt lat="40.41285" lon="-3.6927">
        <time>2022-09-16T05:48:42Z</time>
      </trkpt>
      <trkpt lat="40.41284" lon="-3.69278">
        <time>2022-09-16T05:48:42Z</time>
      </trkpt>
      <trkpt lat="40.41272" lon="-3.69276">
        <time>2022-09-16T05:48:42Z</time>
      </trkpt>
      <trkpt lat="40.41261" lon="-3.69274">
        <time>2022-09-16T05:48:42Z</time>
      </trkpt>
      <trkpt lat="40.41256" lon="-3.69273">
        <time>2022-09-16T05:48:42Z</time>
      </trkpt>
      <trkpt lat="40.41232" lon="-3.69268">
        <time>2022-09-16T05:48:42Z</time>
      </trkpt>
      <trkpt lat="40.41226" lon="-3.69267">
        <time>2022-09-16T05:48:42Z</time>
      </trkpt>
      <trkpt lat="40.41216" lon="-3.69265">
        <time>2022-09-16T05:48:42Z</time>
      </trkpt>
      <trkpt lat="40.41157" lon="-3.69252">
        <time>2022-09-16T05:48:42Z</time>
      </trkpt>
      <trkpt lat="40.41151" lon="-3.69251">
        <time>2022-09-16T05:48:42Z</time>
      </trkpt>
      <trkpt lat="40.4112" lon="-3.69245">
        <time>2022-09-16T05:48:42Z</time>
      </trkpt>
      <trkpt lat="40.41093" lon="-3.69238">
        <time>2022-09-16T05:48:42Z</time>
      </trkpt>
      <trkpt lat="40.4109" lon="-3.69237">
        <time>2022-09-16T05:48:42Z</time>
      </trkpt>
      <trkpt lat="40.41064" lon="-3.69231">
        <time>2022-09-16T05:48:42Z</time>
      </trkpt>
      <trkpt lat="40.41039" lon="-3.69226">
        <time>2022-09-16T05:48:42Z</time>
      </trkpt>
      <trkpt lat="40.41026" lon="-3.69223">
        <time>2022-09-16T05:48:42Z</time>
      </trkpt>
      <trkpt lat="40.41013" lon="-3.6922">
        <time>2022-09-16T05:48:42Z</time>
      </trkpt>
      <trkpt lat="40.41003" lon="-3.69218">
        <time>2022-09-16T05:48:42Z</time>
      </trkpt>
      <trkpt lat="40.40992" lon="-3.69214">
        <time>2022-09-16T05:48:42Z</time>
      </trkpt>
      <trkpt lat="40.40979" lon="-3.69204">
        <time>2022-09-16T05:48:42Z</time>
      </trkpt>
      <trkpt lat="40.40972" lon="-3.69201">
        <time>2022-09-16T05:48:42Z</time>
      </trkpt>
      <trkpt lat="40.4096" lon="-3.69197">
        <time>2022-09-16T05:48:42Z</time>
      </trkpt>
      <trkpt lat="40.40951" lon="-3.69192">
        <time>2022-09-16T05:48:42Z</time>
      </trkpt>
      <trkpt lat="40.40939" lon="-3.69183">
        <time>2022-09-16T05:48:42Z</time>
      </trkpt>
      <trkpt lat="40.40922" lon="-3.69174">
        <time>2022-09-16T05:48:42Z</time>
      </trkpt>
      <trkpt lat="40.40918" lon="-3.69171">
        <time>2022-09-16T05:48:42Z</time>
      </trkpt>
      <trkpt lat="40.40905" lon="-3.69162">
        <time>2022-09-16T05:48:42Z</time>
      </trkpt>
      <trkpt lat="40.40895" lon="-3.69163">
        <time>2022-09-16T05:48:42Z</time>
      </trkpt>
      <trkpt lat="40.40895" lon="-3.69158">
        <time>2022-09-16T05:48:42Z</time>
      </trkpt>
      <trkpt lat="40.40895" lon="-3.69148">
        <time>2022-09-16T05:48:42Z</time>
      </trkpt>
      <trkpt lat="40.40894" lon="-3.69143">
        <time>2022-09-16T05:48:42Z</time>
      </trkpt>
      <trkpt lat="40.40893" lon="-3.69138">
        <time>2022-09-16T05:48:42Z</time>
      </trkpt>
      <trkpt lat="40.40891" lon="-3.69134">
        <time>2022-09-16T05:48:42Z</time>
      </trkpt>
      <trkpt lat="40.40888" lon="-3.69128">
        <time>2022-09-16T05:48:42Z</time>
      </trkpt>
      <trkpt lat="40.40885" lon="-3.69123">
        <time>2022-09-16T05:48:42Z</time>
      </trkpt>
      <trkpt lat="40.40881" lon="-3.69128">
        <time>2022-09-16T05:48:42Z</time>
      </trkpt>
      <trkpt lat="40.40872" lon="-3.69138">
        <time>2022-09-16T05:48:42Z</time>
      </trkpt>
      <trkpt lat="40.4087" lon="-3.6914">
        <time>2022-09-16T05:48:42Z</time>
      </trkpt>
      <trkpt lat="40.40873" lon="-3.69144">
        <time>2022-09-16T05:48:42Z</time>
      </trkpt>
      <trkpt lat="40.40875" lon="-3.69147">
        <time>2022-09-16T05:48:42Z</time>
      </trkpt>
      <trkpt lat="40.40876" lon="-3.69149">
        <time>2022-09-16T05:48:42Z</time>
      </trkpt>
      <trkpt lat="40.40877" lon="-3.69152">
        <time>2022-09-16T05:48:42Z</time>
      </trkpt>
      <trkpt lat="40.4087" lon="-3.69151">
        <time>2022-09-16T05:48:42Z</time>
      </trkpt>
      <trkpt lat="40.40865" lon="-3.69151">
        <time>2022-09-16T05:48:42Z</time>
      </trkpt>
      <trkpt lat="40.40864" lon="-3.69152">
        <time>2022-09-16T05:48:42Z</time>
      </trkpt>
      <trkpt lat="40.4086" lon="-3.69153">
        <time>2022-09-16T05:48:42Z</time>
      </trkpt>
      <trkpt lat="40.40855" lon="-3.69155">
        <time>2022-09-16T05:48:42Z</time>
      </trkpt>
      <trkpt lat="40.40849" lon="-3.69159">
        <time>2022-09-16T05:48:42Z</time>
      </trkpt>
      <trkpt lat="40.40848" lon="-3.6916">
        <time>2022-09-16T05:48:42Z</time>
      </trkpt>
      <trkpt lat="40.40844" lon="-3.6915">
        <time>2022-09-16T05:48:42Z</time>
      </trkpt>
      <trkpt lat="40.40825" lon="-3.69155">
        <time>2022-09-16T05:48:42Z</time>
      </trkpt>
      <trkpt lat="40.40817" lon="-3.69158">
        <time>2022-09-16T05:48:42Z</time>
      </trkpt>
      <trkpt lat="40.40817" lon="-3.69143">
        <time>2022-09-16T05:48:42Z</time>
      </trkpt>
      <trkpt lat="40.40812" lon="-3.69134">
        <time>2022-09-16T05:48:42Z</time>
      </trkpt>
      <trkpt lat="40.40808" lon="-3.69122">
        <time>2022-09-16T05:48:42Z</time>
      </trkpt>
      <trkpt lat="40.40792" lon="-3.69099">
        <time>2022-09-16T05:48:42Z</time>
      </trkpt>
      <trkpt lat="40.40788" lon="-3.69095">
        <time>2022-09-16T05:48:42Z</time>
      </trkpt>
      <trkpt lat="40.40786" lon="-3.69092">
        <time>2022-09-16T05:48:42Z</time>
      </trkpt>
      <trkpt lat="40.40782" lon="-3.69085">
        <time>2022-09-16T05:48:42Z</time>
      </trkpt>
      <trkpt lat="40.40762" lon="-3.69056">
        <time>2022-09-16T05:48:42Z</time>
      </trkpt>
      <trkpt lat="40.4076" lon="-3.69053">
        <time>2022-09-16T05:48:42Z</time>
      </trkpt>
      <trkpt lat="40.4075" lon="-3.69041">
        <time>2022-09-16T05:48:42Z</time>
      </trkpt>
      <trkpt lat="40.40748" lon="-3.69037">
        <time>2022-09-16T05:48:42Z</time>
      </trkpt>
      <trkpt lat="40.40744" lon="-3.6903">
        <time>2022-09-16T05:48:42Z</time>
      </trkpt>
      <trkpt lat="40.40742" lon="-3.69025">
        <time>2022-09-16T05:48:42Z</time>
      </trkpt>
      <trkpt lat="40.40741" lon="-3.69019">
        <time>2022-09-16T05:48:42Z</time>
      </trkpt>
      <trkpt lat="40.40714" lon="-3.68984">
        <time>2022-09-16T05:48:42Z</time>
      </trkpt>
      <trkpt lat="40.40705" lon="-3.68973">
        <time>2022-09-16T05:48:42Z</time>
      </trkpt>
      <trkpt lat="40.407" lon="-3.68968">
        <time>2022-09-16T05:48:42Z</time>
      </trkpt>
      <trkpt lat="40.40694" lon="-3.68974">
        <time>2022-09-16T05:48:42Z</time>
      </trkpt>
      <trkpt lat="40.40687" lon="-3.68961">
        <time>2022-09-16T05:48:42Z</time>
      </trkpt>
      <trkpt lat="40.40685" lon="-3.68957">
        <time>2022-09-16T05:48:42Z</time>
      </trkpt>
      <trkpt lat="40.40689" lon="-3.68953">
        <time>2022-09-16T05:48:42Z</time>
      </trkpt>
      <trkpt lat="40.40687" lon="-3.68951">
        <time>2022-09-16T05:48:42Z</time>
      </trkpt>
      <trkpt lat="40.40682" lon="-3.68944">
        <time>2022-09-16T05:48:42Z</time>
      </trkpt>
      <trkpt lat="40.40668" lon="-3.68923">
        <time>2022-09-16T05:48:42Z</time>
      </trkpt>
      <trkpt lat="40.40665" lon="-3.6892">
        <time>2022-09-16T05:48:42Z</time>
      </trkpt>
      <trkpt lat="40.40663" lon="-3.68916">
        <time>2022-09-16T05:48:42Z</time>
      </trkpt>
      <trkpt lat="40.40661" lon="-3.68912">
        <time>2022-09-16T05:48:42Z</time>
      </trkpt>
      <trkpt lat="40.40659" lon="-3.68909">
        <time>2022-09-16T05:48:42Z</time>
      </trkpt>
      <trkpt lat="40.40655" lon="-3.68901">
        <time>2022-09-16T05:48:42Z</time>
      </trkpt>
      <trkpt lat="40.40653" lon="-3.68895">
        <time>2022-09-16T05:48:42Z</time>
      </trkpt>
      <trkpt lat="40.40653" lon="-3.68896">
        <time>2022-09-16T05:48:42Z</time>
      </trkpt>
      <trkpt lat="40.40651" lon="-3.68898">
        <time>2022-09-16T05:48:42Z</time>
      </trkpt>
      <trkpt lat="40.40649" lon="-3.68894">
        <time>2022-09-16T05:48:42Z</time>
      </trkpt>
      <trkpt lat="40.40641" lon="-3.68876">
        <time>2022-09-16T05:48:42Z</time>
      </trkpt>
      <trkpt lat="40.4064" lon="-3.68874">
        <time>2022-09-16T05:48:42Z</time>
      </trkpt>
      <trkpt lat="40.40645" lon="-3.6887">
        <time>2022-09-16T05:48:42Z</time>
      </trkpt>
      <trkpt lat="40.40642" lon="-3.68866">
        <time>2022-09-16T05:48:42Z</time>
      </trkpt>
      <trkpt lat="40.40637" lon="-3.68846">
        <time>2022-09-16T05:48:42Z</time>
      </trkpt>
      <trkpt lat="40.40636" lon="-3.68842">
        <time>2022-09-16T05:48:42Z</time>
      </trkpt>
      <trkpt lat="40.40633" lon="-3.68841">
        <time>2022-09-16T05:48:42Z</time>
      </trkpt>
      <trkpt lat="40.40631" lon="-3.68839">
        <time>2022-09-16T05:48:42Z</time>
      </trkpt>
      <trkpt lat="40.40629" lon="-3.68838">
        <time>2022-09-16T05:48:42Z</time>
      </trkpt>
      <trkpt lat="40.40628" lon="-3.68837">
        <time>2022-09-16T05:48:42Z</time>
      </trkpt>
      <trkpt lat="40.40627" lon="-3.68836">
        <time>2022-09-16T05:48:42Z</time>
      </trkpt>
      <trkpt lat="40.40625" lon="-3.68834">
        <time>2022-09-16T05:48:42Z</time>
      </trkpt>
      <trkpt lat="40.40623" lon="-3.68831">
        <time>2022-09-16T05:48:42Z</time>
      </trkpt>
      <trkpt lat="40.4062" lon="-3.68827">
        <time>2022-09-16T05:48:42Z</time>
      </trkpt>
      <trkpt lat="40.40618" lon="-3.68825">
        <time>2022-09-16T05:48:42Z</time>
      </trkpt>
      <trkpt lat="40.40609" lon="-3.68816">
        <time>2022-09-16T05:48:42Z</time>
      </trkpt>
      <trkpt lat="40.40603" lon="-3.68811">
        <time>2022-09-16T05:48:42Z</time>
      </trkpt>
      <trkpt lat="40.40567" lon="-3.68771">
        <time>2022-09-16T05:48:42Z</time>
      </trkpt>
      <trkpt lat="40.40554" lon="-3.68757">
        <time>2022-09-16T05:48:42Z</time>
      </trkpt>
      <trkpt lat="40.40551" lon="-3.68762">
        <time>2022-09-16T05:48:42Z</time>
      </trkpt>
    </trkseg>
  </trk>
</gpx>
